Berlin, NH

9:48 PM EDT on September 23, 2017 (GMT -0400)
Berlin Municipal

Weather History for KBML - January, 2011

Change the Weather History Date:

Monday, January 31, 2011

  Actual Average Record
Temperature  
Mean Temperature 0 °F -  
Max Temperature 12 °F 24 °F 55 °F (2013)
Min Temperature -11 °F 1 °F -25 °F (1999)
Degree Days  
Heating Degree Days 64    
Moisture  
Dew Point -8 °F    
Average Humidity 64    
Maximum Humidity 82    
Minimum Humidity 37    
Precipitation  
Precipitation 0.00 in - - ()
Sea Level Pressure  
Sea Level Pressure 30.40 in    
Wind  
Wind Speed 5 mph (WNW)    
Max Wind Speed 12 mph    
Max Gust Speed 21 mph    
Visibility 10 miles    
Events      
Averages and records for this station are not official NWS values.
T = Trace of Precipitation, MM = Missing Value Source: NWS Daily Summary

Daily Weather History Graph

Daily Weather History Graph

Search for Another Location

Airport or City:

Trip Planner

Search our weather history database for the weather conditions in past years. The results will help you decide how hot, cold, wet, or windy it might be!

Date:

Astronomy

Jan. 31, 2011 Rise Set
Actual Time 7:04 AM EST 4:51 PM EST
Civil Twilight 6:33 AM EST 5:23 PM EST
Nautical Twilight 5:58 AM EST 5:58 PM EST
Astronomical Twilight 5:24 AM EST 6:32 PM EST
Moon 5:26 AM EST (1/31) 2:37 PM EST (1/31)
Length of Visible Light 10h 49m
Length of Day
9h 46m
Waning Crescent, 6% of the Moon is Illuminated
Jan 31
Waning Crescent
Feb 2
New
Feb 11
First Quarter
Feb 18
Full
Feb 24
Last Quarter

Hourly Weather History & Observations

Time (EST) Temp. Windchill Dew Point Humidity Pressure Visibility Wind Dir Wind Speed Gust Speed Precip Events Conditions
12:34 AM 12.2 °F 6.1 °F 3.2 °F 67% 30.11 in 10.0 mi Variable 3.5 mph - 0.00 in   Overcast
12:43 AM 10.4 °F -0.4 °F 3.2 °F 73% 30.12 in 10.0 mi Variable 6.9 mph - 0.00 in   Mostly Cloudy
12:52 AM 10.9 °F 1.4 °F 3.9 °F 73% 30.19 in 9.0 mi WNW 5.8 mph - 0.00 in   Overcast
1:52 AM 9.0 °F -2.2 °F 1.0 °F 70% 30.23 in 10.0 mi Variable 6.9 mph - N/A   Clear
2:52 AM 7.0 °F -5.7 °F -0.9 °F 70% 30.24 in 10.0 mi West 8.1 mph 18.4 mph N/A   Clear
3:52 AM 5.0 °F -9.1 °F -2.9 °F 70% 30.27 in 10.0 mi West 9.2 mph 20.7 mph N/A   Clear
4:52 AM 3.9 °F -12.2 °F -4.0 °F 70% 30.31 in 10.0 mi WNW 11.5 mph 20.7 mph N/A   Clear
5:52 AM 3.0 °F -12.5 °F -5.1 °F 69% 30.34 in 10.0 mi West 10.4 mph 17.3 mph N/A   Clear
6:52 AM 1.0 °F -10.3 °F -6.0 °F 72% 30.39 in 10.0 mi Variable 5.8 mph - N/A   Clear
7:52 AM -0.0 °F -9.9 °F -7.1 °F 72% 30.43 in 10.0 mi NNW 4.6 mph - N/A   Clear
8:52 AM 1.9 °F -9.2 °F -8.0 °F 63% 30.44 in 10.0 mi Variable 5.8 mph - N/A   Clear
9:52 AM 3.0 °F -6.4 °F -8.0 °F 60% 30.47 in 10.0 mi West 4.6 mph - N/A   Clear
11:52 AM 7.0 °F -3.3 °F -11.0 °F 44% 30.47 in 10.0 mi Variable 5.8 mph - N/A   Clear
12:52 PM 9.0 °F -2.2 °F -9.9 °F 42% 30.44 in 10.0 mi WNW 6.9 mph - N/A   Clear
1:52 PM 10.0 °F 1.8 °F -11.9 °F 37% 30.43 in 10.0 mi Variable 4.6 mph - N/A   Clear
2:52 PM 10.0 °F 0.4 °F -11.0 °F 38% 30.45 in 10.0 mi Variable 5.8 mph - N/A   Clear
3:52 PM 10.0 °F 1.8 °F -11.0 °F 38% 30.47 in 10.0 mi Variable 4.6 mph - N/A   Clear
4:52 PM 7.0 °F - -11.0 °F 44% 30.49 in 10.0 mi Calm Calm - N/A   Clear
5:52 PM -0.0 °F - -9.9 °F 63% 30.51 in 10.0 mi Calm Calm - N/A   Clear
6:52 PM -7.1 °F - -11.9 °F 79% 30.53 in 10.0 mi Calm Calm - N/A   Clear
7:52 PM -8.0 °F - -14.1 °F 75% 30.53 in 10.0 mi Calm Calm - N/A   Clear
8:52 PM -9.9 °F - -14.1 °F 82% 30.53 in 8.0 mi Calm Calm - N/A   Clear
9:52 PM -11.0 °F - -16.1 °F 78% 30.53 in 9.0 mi Calm Calm - N/A   Clear
10:52 PM -9.9 °F - -16.1 °F 74% 30.52 in 10.0 mi Calm Calm - N/A   Clear
11:52 PM -9.0 °F - -15.0 °F 75% 30.53 in 10.0 mi Calm Calm - N/A   Clear